, SD

(GMT )
Rapid City

Weather History for KRAP - October, 2010

Change the Weather History Date:

Tuesday, October 5, 2010

  Actual Average Record
Temperature  
Mean Temperature 70 °F 52 °F  
Max Temperature 90 °F 66 °F 94 °F (1947)
Min Temperature 49 °F 38 °F 19 °F (1952)
Degree Days  
Heating Degree Days 0 13  
Month to date heating degree days 28 62  
Since 1 July heating degree days 216 286  
Cooling Degree Days 5 0  
Month to date cooling degree days 5 0  
Year to date cooling degree days 526 633  
Growing Degree Days 18 (Base 50)    
Moisture  
Dew Point 46 °F    
Average Humidity 52    
Maximum Humidity 86    
Minimum Humidity 17    
Precipitation  
Precipitation 0.00 in 0.05 in 0.71 in (1972)
Month to date precipitation 0.00 0.28  
Year to date precipitation 17.89 14.20  
Snow  
Snow 0.00 in 0.00 in 3.60 in (2013)
Month to date snowfall 0.0 0.1  
Since 1 July snowfall 0.0 0.3  
Since 1 September snowfall 0.0 0.3  
Snow Depth 0.00 in    
Sea Level Pressure  
Sea Level Pressure 30.00 in    
Wind  
Wind Speed 10 mph (NE)    
Max Wind Speed 28 mph    
Max Gust Speed 33 mph    
Visibility 10 miles    
Events      
T = Trace of Precipitation, MM = Missing Value Source: NWS Daily Summary

Daily Weather History Graph

Daily Weather History Graph

Search for Another Location

Airport or City:

Trip Planner

Search our weather history database for the weather conditions in past years. The results will help you decide how hot, cold, wet, or windy it might be!

Date:

Astronomy

Oct. 05, 2010 Rise Set
Actual Time 6:54 AM MDT 6:25 PM MDT
Civil Twilight 6:25 AM MDT 6:54 PM MDT
Nautical Twilight 5:52 AM MDT 7:27 PM MDT
Astronomical Twilight 5:18 AM MDT 8:01 PM MDT
Moon 4:15 AM MDT (10/5) 5:00 PM MDT (10/5)
Length of Visible Light 12h 28m
Length of Day
11h 31m
Waning Crescent, 6% of the Moon is Illuminated
Oct 5
Waning Crescent
Oct 7
New
Oct 14
First Quarter
Oct 22
Full
Oct 30
Last Quarter

Hourly Weather History & Observations

Time (MDT) Temp. Dew Point Humidity Pressure Visibility Wind Dir Wind Speed Gust Speed Precip Events Conditions
12:52 AM 62.1 °F 48.0 °F 60% 29.86 in 10.0 mi SSE 10.4 mph - N/A   Clear
1:52 AM 60.1 °F 48.0 °F 64% 29.86 in 10.0 mi SSE 6.9 mph - N/A   Clear
2:52 AM 57.0 °F 48.0 °F 72% 29.86 in 10.0 mi SSE 5.8 mph - N/A   Clear
3:52 AM 55.0 °F 46.9 °F 74% 29.86 in 10.0 mi SE 3.5 mph - N/A   Clear
4:52 AM 53.1 °F 46.9 °F 80% 29.88 in 10.0 mi SE 3.5 mph - N/A   Clear
5:52 AM 50.0 °F 46.0 °F 86% 29.90 in 10.0 mi Calm Calm - N/A   Clear
6:52 AM 51.1 °F 46.0 °F 83% 29.93 in 10.0 mi Calm Calm - N/A   Clear
7:52 AM 55.0 °F 48.0 °F 77% 29.94 in 10.0 mi East 3.5 mph - N/A   Clear
8:52 AM 63.0 °F 48.9 °F 60% 29.94 in 10.0 mi East 3.5 mph - N/A   Clear
9:52 AM 73.0 °F 48.0 °F 41% 29.94 in 10.0 mi SE 5.8 mph - N/A   Clear
10:52 AM 79.0 °F 46.9 °F 32% 29.95 in 10.0 mi SSE 5.8 mph - N/A   Clear
11:52 AM 84.9 °F 41.0 °F 21% 29.94 in 10.0 mi Variable 3.5 mph - N/A   Clear
12:52 PM 87.1 °F 37.0 °F 17% 29.94 in 10.0 mi SW 6.9 mph - N/A   Clear
1:52 PM 87.1 °F 44.1 °F 22% 29.94 in 10.0 mi North 20.7 mph 24.2 mph N/A   Clear
2:52 PM 84.0 °F 44.1 °F 25% 29.97 in 10.0 mi North 21.9 mph 27.6 mph N/A   Clear
3:52 PM 82.9 °F 44.1 °F 25% 30.01 in 10.0 mi North 23.0 mph - N/A   Clear
4:52 PM 80.1 °F 45.0 °F 29% 30.03 in 10.0 mi North 21.9 mph 31.1 mph N/A   Clear
5:52 PM 75.9 °F 46.0 °F 35% 30.08 in 10.0 mi North 15.0 mph - N/A   Clear
6:52 PM 72.0 °F 46.0 °F 40% 30.13 in 10.0 mi NNW 16.1 mph - N/A   Clear
7:52 PM 68.0 °F 48.0 °F 49% 30.18 in 10.0 mi NNW 10.4 mph - N/A   Clear
8:52 PM 66.0 °F 48.0 °F 52% 30.21 in 10.0 mi NNW 13.8 mph - N/A   Clear
9:52 PM 63.0 °F 48.0 °F 58% 30.23 in 10.0 mi NNW 13.8 mph - N/A   Clear
10:52 PM 62.1 °F 48.9 °F 62% 30.26 in 10.0 mi NNW 16.1 mph - N/A   Clear
11:52 PM 60.1 °F 50.0 °F 69% 30.28 in 10.0 mi NNW 16.1 mph - N/A   Clear